DW6558 Weather Reports


Display with metric or nautical units.
time (UTC)temp
F
wind
direction
speed
MPH
gust
MPH
rain 1hr
in
rain 24hr
in
rain mn
in
humidity
%
barometer
mb
20260508185721 66 258 1.0 17.0 0.00 0.00 0.00 30 931.0
20260508185218 67 188 5.0 14.0 0.00 0.00 0.00 30 931.1
20260508184715 66 265 7.0 17.0 0.00 0.00 0.00 30 931.0
20260508184212 65 314 9.0 13.0 0.00 0.00 0.00 31 931.2
20260508183709 66 247 5.0 9.0 0.00 0.00 0.00 30 931.2
20260508183205 65 255 4.0 11.0 0.00 0.00 0.00 33 931.2
20260508182701 65 331 4.0 14.0 0.00 0.00 0.00 31 931.1
20260508182158 66 243 5.0 9.0 0.00 0.00 0.00 31 931.3
20260508181654 65 247 8.0 13.0 0.00 0.00 0.00 30 931.1
20260508181151 65 245 6.0 13.0 0.00 0.00 0.00 30 931.3
20260508180647 66 304 6.0 11.0 0.00 0.00 0.00 31 931.2
20260508180144 65 297 10.0 17.0 0.00 0.00 0.00 29 931.2
20260508175641 65 311 7.0 10.0 0.00 0.00 0.00 29 931.2
20260508175138 65 52 8.0 15.0 0.00 0.00 0.00 30 931.6
20260508174635 64 289 7.0 17.0 0.00 0.00 0.00 31 931.2
20260508174132 65 271 11.0 15.0 0.00 0.00 0.00 30 931.6
20260508173629 65 254 6.0 8.0 0.00 0.00 0.00 30 931.3
20260508173125 64 317 6.0 13.0 0.00 0.00 0.00 31 931.5
20260508172622 64 273 6.0 11.0 0.00 0.00 0.00 31 931.9
20260508172119 65 253 6.0 14.0 0.00 0.00 0.00 31 931.7
20260508171615 65 281 7.0 13.0 0.00 0.00 0.00 30 931.6
20260508171112 63 254 8.0 10.0 0.00 0.00 0.00 30 931.5
20260508170609 64 316 6.0 13.0 0.00 0.00 0.00 30 931.7
20260508170107 64 350 4.0 9.0 0.00 0.00 0.00 31 931.6
20260508165603 64 306 5.0 14.0 0.00 0.00 0.00 33 931.5
20260508165100 64 278 4.0 6.0 0.00 0.00 0.00 31 931.8
20260508164556 63 257 4.0 10.0 0.00 0.00 0.00 32 931.8
20260508164053 63 354 7.0 10.0 0.00 0.00 0.00 33 931.7
20260508163551 63 257 1.0 13.0 0.00 0.00 0.00 33 931.6
20260508163048 63 358 1.0 9.0 0.00 0.00 0.00 31 931.8
20260508162544 63 191 5.0 7.0 0.00 0.00 0.00 31 931.3
20260508162042 63 343 8.0 11.0 0.00 0.00 0.00 32 931.6
20260508161538 62 232 4.0 13.0 0.00 0.00 0.00 33 931.6
20260508161036 62 269 9.0 13.0 0.00 0.00 0.00 33 931.5
20260508160534 62 261 3.0 11.0 0.00 0.00 0.00 33 931.3
20260508160031 61 270 4.0 9.0 0.00 0.00 0.00 35 931.5
20260508155528 62 269 7.0 14.0 0.00 0.00 0.00 33 931.7
20260508155025 61 332 2.0 7.0 0.00 0.00 0.00 34 931.6
20260508154522 60 323 7.0 11.0 0.00 0.00 0.00 34 931.7
20260508154019 60 262 9.0 10.0 0.00 0.00 0.00 34 931.7
20260508153515 60 312 5.0 10.0 0.00 0.00 0.00 35 931.2
20260508153012 61 319 6.0 7.0 0.00 0.00 0.00 39 931.6
20260508152509 60 254 3.0 7.0 0.00 0.00 0.00 39 931.6
20260508152004 60 260 3.0 5.0 0.00 0.00 0.00 42 931.5
20260508151501 59 146 2.0 2.0 0.00 0.00 0.00 44 931.5
20260508150958 59 170 3.0 6.0 0.00 0.00 0.00 47 931.7
20260508150455 58 57 0.0 1.0 0.00 0.00 0.00 48 931.5
20260508145950 57 79 2.0 3.0 0.00 0.00 0.00 49 931.6
20260508145447 56 60 0.0 1.0 0.00 0.00 0.00 49 931.6
20260508144944 56 37 0.0 2.0 0.00 0.00 0.00 51 931.8
20260508144442 57 68 0.0 0.0 0.00 0.00 0.00 49 931.6
20260508143939 55 63 0.0 0.0 0.00 0.00 0.00 50 931.6
20260508143437 55 67 0.0 0.0 0.00 0.00 0.00 51 931.6
20260508142932 53 67 0.0 0.0 0.00 0.00 0.00 54 931.6
20260508142430 52 49 0.0 1.0 0.00 0.00 0.00 56 931.6
20260508141926 52 60 1.0 1.0 0.00 0.00 0.00 58 931.8
20260508141423 50 70 0.0 2.0 0.00 0.00 0.00 59 931.7
20260508140921 50 68 0.0 0.0 0.00 0.00 0.00 62 931.8
20260508140417 48 62 2.0 3.0 0.00 0.00 0.00 64 931.8
20260508135913 46 79 2.0 2.0 0.00 0.00 0.00 66 931.9
20260508135410 45 66 1.0 2.0 0.00 0.00 0.00 69 932.1
20260508134907 43 77 2.0 2.0 0.00 0.00 0.00 71 932.1
20260508134403 44 64 1.0 1.0 0.00 0.00 0.00 70 932.4
20260508133859 44 91 0.0 0.0 0.00 0.00 0.00 70 932.6
20260508133358 43 126 3.0 6.0 0.00 0.00 0.00 70 932.9
20260508132854 43 116 3.0 3.0 0.00 0.00 0.00 70 933.3
20260508132352 42 123 3.0 3.0 0.00 0.00 0.00 71 933.1
20260508131848 41 112 3.0 5.0 0.00 0.00 0.00 73 932.7
20260508131344 41 101 2.0 3.0 0.00 0.00 0.00 73 932.1
20260508130841 41 117 0.0 2.0 0.00 0.00 0.00 73 931.2
20260508130338 40 116 3.0 3.0 0.00 0.00 0.00 75 931.1
20260508125834 39 93 2.0 3.0 0.00 0.00 0.00 78 930.8
20260508125330 38 96 0.0 3.0 0.00 0.00 0.00 78 931.0
20260508124828 37 121 0.0 0.0 0.00 0.00 0.00 79 930.8
20260508124325 37 102 2.0 5.0 0.00 0.00 0.00 80 930.8
20260508123823 36 117 0.0 0.0 0.00 0.00 0.00 82 930.7
20260508123321 36 121 3.0 3.0 0.00 0.00 0.00 82 930.8
20260508122817 36 98 2.0 3.0 0.00 0.00 0.00 82 930.5
20260508122314 35 83 0.0 0.0 0.00 0.00 0.00 82 930.7
20260508121812 35 82 0.0 2.0 0.00 0.00 0.00 82 930.7
20260508121310 37 70 0.0 0.0 0.00 0.00 0.00 81 930.7
20260508120807 37 119 0.0 2.0 0.00 0.00 0.00 82 930.4
20260508120305 36 82 1.0 2.0 0.00 0.00 0.00 82 930.5
20260508115802 36 75 1.0 2.0 0.00 0.00 0.00 82 930.4
20260508115259 36 70 1.0 2.0 0.00 0.00 0.00 83 930.4
20260508114756 36 79 2.0 2.0 0.00 0.00 0.00 83 930.5
20260508114253 36 67 1.0 2.0 0.00 0.00 0.00 83 930.5
20260508113749 36 81 1.0 2.0 0.00 0.00 0.00 83 930.4
20260508113248 36 61 1.0 1.0 0.00 0.00 0.00 83 930.3
20260508112744 35 52 0.0 1.0 0.00 0.00 0.00 83 930.4
20260508112241 36 53 0.0 0.0 0.00 0.00 0.00 82 930.7
20260508111737 36 54 0.0 1.0 0.00 0.00 0.00 81 930.4
20260508111235 36 81 2.0 3.0 0.00 0.00 0.00 82 930.4
20260508110732 37 49 1.0 1.0 0.00 0.00 0.00 81 930.5
20260508110229 37 75 2.0 2.0 0.00 0.00 0.00 80 930.4
20260508105724 38 83 2.0 3.0 0.00 0.00 0.00 79 930.4
20260508105221 38 82 2.0 3.0 0.00 0.00 0.00 79 930.0
20260508104718 38 93 3.0 3.0 0.00 0.00 0.00 80 930.1
20260508104215 38 76 1.0 3.0 0.00 0.00 0.00 80 930.3
20260508103712 38 119 3.0 3.0 0.00 0.00 0.00 81 930.3
20260508103209 38 106 2.0 5.0 0.00 0.00 0.00 81 930.4
20260508102706 38 130 4.0 5.0 0.00 0.00 0.00 81 930.4
20260508102204 38 106 3.0 5.0 0.00 0.00 0.00 80 930.4
20260508101701 38 106 2.0 2.0 0.00 0.00 0.00 80 930.3
20260508101159 38 108 4.0 6.0 0.00 0.00 0.00 80 930.4
20260508100656 38 102 4.0 6.0 0.00 0.00 0.00 80 930.4
20260508100154 38 111 3.0 5.0 0.00 0.00 0.00 80 930.3
20260508095650 38 91 0.0 5.0 0.00 0.00 0.00 81 930.3
20260508095147 38 159 4.0 6.0 0.00 0.00 0.00 80 930.3
20260508094644 38 126 4.0 7.0 0.00 0.00 0.00 80 930.2
20260508094141 39 122 3.0 5.0 0.00 0.00 0.00 80 930.3
20260508093638 39 92 4.0 5.0 0.00 0.00 0.00 80 930.4
20260508093136 39 119 3.0 7.0 0.00 0.00 0.00 80 930.3
20260508092633 38 130 5.0 8.0 0.00 0.00 0.00 80 930.2
20260508092131 38 124 3.0 5.0 0.00 0.00 0.00 80 930.4
20260508091628 38 65 1.0 3.0 0.00 0.00 0.00 81 930.0
20260508091125 39 104 2.0 3.0 0.00 0.00 0.00 80 930.3
20260508090623 39 114 2.0 5.0 0.00 0.00 0.00 80 930.5
20260508090120 39 120 3.0 5.0 0.00 0.00 0.00 80 930.4
20260508085616 39 93 1.0 3.0 0.00 0.00 0.00 79 930.4
20260508085113 39 107 2.0 3.0 0.00 0.00 0.00 79 930.5
20260508084610 39 120 3.0 5.0 0.00 0.00 0.00 79 930.5
20260508084108 39 121 3.0 5.0 0.00 0.00 0.00 79 930.4
20260508083605 39 122 3.0 5.0 0.00 0.00 0.00 79 930.4
20260508083102 39 123 3.0 5.0 0.00 0.00 0.00 79 930.5
20260508082557 39 120 3.0 5.0 0.00 0.00 0.00 78 930.7
20260508082054 40 122 3.0 6.0 0.00 0.00 0.00 78 930.5
20260508081552 40 109 4.0 6.0 0.00 0.00 0.00 77 930.7
20260508081047 40 127 5.0 7.0 0.00 0.00 0.00 77 930.4
20260508080546 41 125 6.0 7.0 0.00 0.00 0.00 75 930.7
20260508080043 41 144 4.0 6.0 0.00 0.00 0.00 75 930.5
20260508075539 41 92 2.0 3.0 0.00 0.00 0.00 75 930.5
20260508075037 41 106 3.0 5.0 0.00 0.00 0.00 74 930.9
20260508074534 41 120 1.0 3.0 0.00 0.00 0.00 74 930.8
20260508074031 41 102 2.0 3.0 0.00 0.00 0.00 75 930.7
20260508073528 41 114 3.0 5.0 0.00 0.00 0.00 76 930.5
20260508073026 41 139 5.0 6.0 0.00 0.00 0.00 76 930.8
20260508072521 41 131 3.0 5.0 0.00 0.00 0.00 75 930.5
20260508072019 41 87 0.0 0.0 0.00 0.00 0.00 75 930.9
20260508071517 41 125 2.0 3.0 0.00 0.00 0.00 75 930.5
20260508071014 42 126 3.0 5.0 0.00 0.00 0.00 74 930.5
20260508070512 42 100 0.0 2.0 0.00 0.00 0.00 74 930.5
20260508070010 42 120 0.0 3.0 0.00 0.00 0.00 74 930.4
20260508065507 42 115 2.0 5.0 0.00 0.00 0.00 74 930.5
20260508065006 42 114 0.0 0.0 0.00 0.00 0.00 74 930.5
20260508064503 42 109 0.0 1.0 0.00 0.00 0.00 74 930.7
20260508064000 42 118 1.0 2.0 0.00 0.00 0.00 75 930.3
20260508063457 42 91 0.0 0.0 0.00 0.00 0.00 74 930.4
20260508062955 42 117 0.0 0.0 0.00 0.00 0.00 73 930.5
20260508062453 42 135 0.0 0.0 0.00 0.00 0.00 73 930.4
20260508061949 42 87 0.0 0.0 0.00 0.00 0.00 72 930.3
20260508061447 42 92 0.0 0.0 0.00 0.00 0.00 73 930.5
20260508060943 42 97 0.0 0.0 0.00 0.00 0.00 72 930.2
20260508060441 42 60 0.0 0.0 0.00 0.00 0.00 72 930.4
20260508055937 43 66 0.0 0.0 0.00 0.00 0.00 71 930.2
20260508055434 43 73 0.0 1.0 0.00 0.00 0.00 71 930.2
20260508054930 44 66 0.0 0.0 0.00 0.00 0.00 69 930.3
20260508054428 44 70 0.0 0.0 0.00 0.00 0.00 70 930.3
20260508053924 44 73 0.0 0.0 0.00 0.00 0.00 70 930.1
20260508053421 45 97 0.0 0.0 0.00 0.00 0.00 70 930.3
20260508052919 45 104 0.0 0.0 0.00 0.00 0.00 70 930.2
20260508052416 45 119 0.0 0.0 0.00 0.00 0.00 69 930.3
20260508051912 45 121 0.0 0.0 0.00 0.00 0.00 69 930.1
20260508051408 45 80 0.0 0.0 0.00 0.00 0.00 68 930.4
20260508050904 46 58 0.0 0.0 0.00 0.00 0.00 65 930.3
20260508050401 47 59 0.0 0.0 0.00 0.00 0.00 64 930.3
20260508045857 47 59 0.0 1.0 0.00 0.00 0.00 64 930.2
20260508045355 48 81 0.0 0.0 0.00 0.00 0.00 63 930.3
20260508044852 48 64 0.0 0.0 0.00 0.00 0.00 62 930.2
20260508044348 49 64 0.0 0.0 0.00 0.00 0.00 61 930.4
20260508043844 50 64 0.0 0.0 0.00 0.00 0.00 60 930.3
20260508043342 50 66 0.0 0.0 0.00 0.00 0.00 59 930.1
20260508042838 51 91 0.0 0.0 0.00 0.00 0.00 57 930.1
20260508042336 52 83 0.0 0.0 0.00 0.00 0.00 57 930.3
20260508041833 52 70 0.0 0.0 0.00 0.00 0.00 54 930.4
20260508041329 52 68 0.0 0.0 0.00 0.00 0.00 55 930.3
20260508040826 52 65 0.0 0.0 0.00 0.00 0.00 56 930.1
20260508040323 52 65 0.0 0.0 0.00 0.00 0.00 55 930.3
20260508035820 53 61 0.0 2.0 0.00 0.00 0.00 55 930.3
20260508035318 52 79 0.0 1.0 0.00 0.00 0.00 56 930.3
20260508034814 52 193 3.0 3.0 0.00 0.00 0.00 55 930.0
20260508034312 52 96 2.0 2.0 0.00 0.00 0.00 56 929.9
20260508033808 53 77 4.0 5.0 0.00 0.00 0.00 53 930.1
20260508033307 55 23 0.0 1.0 0.00 0.00 0.00 49 929.9
20260508032804 55 327 2.0 2.0 0.00 0.00 0.00 49 929.7
20260508032301 56 4 1.0 3.0 0.00 0.00 0.00 48 929.7
20260508031758 56 287 5.0 8.0 0.00 0.00 0.00 47 929.6
20260508031254 56 12 0.0 0.0 0.00 0.00 0.00 47 929.7
20260508030751 57 286 2.0 3.0 0.00 0.00 0.00 46 929.5
20260508030248 57 351 2.0 5.0 0.00 0.00 0.00 45 929.5
20260508025744 57 296 2.0 6.0 0.00 0.00 0.00 45 929.5
20260508025241 58 286 0.0 1.0 0.00 0.00 0.00 43 929.3
20260508024738 59 309 0.0 3.0 0.00 0.00 0.00 42 929.3
20260508024235 59 329 3.0 7.0 0.00 0.00 0.00 41 929.4
20260508023732 59 298 5.0 8.0 0.00 0.00 0.00 41 929.1
20260508023229 60 334 2.0 7.0 0.00 0.00 0.00 40 928.8
20260508022724 60 346 3.0 9.0 0.00 0.00 0.00 40 928.9
20260508022221 60 243 3.0 7.0 0.00 0.00 0.00 40 929.1
20260508021718 60 300 3.0 8.0 0.00 0.00 0.00 39 929.1
20260508021214 61 311 5.0 10.0 0.00 0.00 0.00 39 929.1
20260508020711 61 345 6.0 8.0 0.00 0.00 0.00 38 929.2
20260508020208 61 239 1.0 11.0 0.00 0.00 0.00 38 928.8
20260508015706 62 277 6.0 8.0 0.00 0.00 0.00 37 929.4
20260508015202 62 298 2.0 10.0 0.00 0.00 0.00 36 929.2
20260508014659 62 307 2.0 8.0 0.00 0.00 0.00 36 929.1
20260508014155 62 301 2.0 11.0 0.00 0.00 0.00 35 929.2
20260508013652 63 330 10.0 16.0 0.00 0.00 0.00 34 929.2
20260508013148 63 256 6.0 13.0 0.00 0.00 0.00 35 929.3
20260508012646 64 307 8.0 11.0 0.00 0.00 0.00 34 929.3
20260508012143 64 348 6.0 9.0 0.00 0.00 0.00 34 929.5
20260508011641 64 303 9.0 15.0 0.00 0.00 0.00 33 929.5
20260508011138 65 259 7.0 9.0 0.00 0.00 0.00 33 929.7
20260508010635 64 252 6.0 10.0 0.00 0.00 0.00 33 929.7
20260508010133 65 269 8.0 9.0 0.00 0.00 0.00 33 929.7
20260508005630 64 252 6.0 15.0 0.00 0.00 0.00 33 929.7
20260508005126 65 266 5.0 11.0 0.00 0.00 0.00 33 929.6
20260508004622 65 245 5.0 9.0 0.00 0.00 0.00 33 929.9
20260508004119 64 231 9.0 13.0 0.00 0.00 0.00 32 929.6
20260508003615 64 332 5.0 16.0 0.00 0.00 0.00 32 929.5
20260508003113 65 324 8.0 9.0 0.00 0.00 0.00 32 929.7
20260508002609 65 288 5.0 15.0 0.00 0.00 0.00 32 929.7
20260508002107 64 275 5.0 10.0 0.00 0.00 0.00 34 930.0
20260508001602 64 240 7.0 16.0 0.00 0.00 0.00 34 929.6
20260508001058 64 26 1.0 11.0 0.00 0.00 0.00 35 929.7
20260508000554 64 249 0.0 10.0 0.00 0.00 0.00 34 930.0
20260508000052 64 250 5.0 8.0 0.00 0.00 0.00 34 929.7
20260507235548 64 268 6.0 13.0 0.00 0.00 0.00 34 930.0
20260507235046 63 347 7.0 15.0 0.00 0.00 0.00 35 929.7
20260507234542 63 244 5.0 13.0 0.00 0.00 0.00 34 930.0
20260507234038 61 295 8.0 17.0 0.00 0.00 0.00 35 929.4
20260507233535 61 16 11.0 14.0 0.00 0.00 0.00 36 929.5
20260507233034 61 285 7.0 18.0 0.00 0.00 0.00 36 929.6
20260507232530 61 242 4.0 10.0 0.00 0.00 0.00 36 929.5
20260507232027 62 343 6.0 15.0 0.00 0.00 0.00 35 929.6
20260507231524 62 264 6.0 11.0 0.00 0.00 0.00 36 930.1
20260507231021 61 338 7.0 14.0 0.00 0.00 0.00 36 930.0
20260507230518 62 351 5.0 13.0 0.00 0.00 0.00 36 930.0
20260507230014 62 310 9.0 15.0 0.00 0.00 0.00 35 930.1
20260507225510 62 332 9.0 18.0 0.00 0.00 0.00 34 930.1
20260507225006 62 251 3.0 13.0 0.00 0.00 0.00 34 930.0
20260507224502 62 260 9.0 13.0 0.00 0.00 0.00 34 930.0
20260507223958 62 244 9.0 13.0 0.00 0.00 0.00 34 930.1
20260507223454 62 308 11.0 18.0 0.00 0.00 0.00 33 930.3
20260507222952 62 32 8.0 15.0 0.00 0.00 0.00 33 930.4
20260507222448 62 256 7.0 21.0 0.00 0.00 0.00 34 930.3
20260507221945 63 287 7.0 13.0 0.00 0.00 0.00 33 930.4
20260507221442 63 286 11.0 14.0 0.00 0.00 0.00 33 930.4
20260507220938 62 352 9.0 15.0 0.00 0.00 0.00 33 930.4
20260507220436 62 319 4.0 14.0 0.00 0.00 0.00 33 930.5
20260507215932 62 22 9.0 15.0 0.00 0.00 0.00 32 930.3
20260507215429 63 300 5.0 14.0 0.00 0.00 0.00 31 930.4
20260507214926 63 317 12.0 18.0 0.00 0.00 0.00 31 930.9
20260507214424 63 313 8.0 24.0 0.00 0.00 0.00 31 930.9
20260507213919 63 312 9.0 18.0 0.00 0.00 0.00 31 930.8
20260507213416 63 358 8.0 21.0 0.00 0.00 0.00 33 930.7
20260507212913 63 289 7.0 9.0 0.00 0.00 0.00 32 931.0
20260507212409 63 295 12.0 15.0 0.00 0.00 0.00 32 930.9
20260507211906 62 331 8.0 16.0 0.00 0.00 0.00 34 930.5
20260507211402 62 247 5.0 13.0 0.00 0.00 0.00 32 930.9
20260507210859 62 321 17.0 26.0 0.00 0.00 0.00 32 930.7
20260507210356 63 308 4.0 13.0 0.00 0.00 0.00 33 930.8
20260507205852 63 236 9.0 17.0 0.00 0.00 0.00 32 930.7
20260507205349 63 261 1.0 14.0 0.00 0.00 0.00 33 930.7
20260507204846 63 260 7.0 16.0 0.00 0.00 0.00 32 930.7
20260507204343 63 261 12.0 21.0 0.00 0.00 0.00 31 930.8
20260507203841 63 289 9.0 21.0 0.00 0.00 0.00 32 930.7
20260507203338 63 295 11.0 18.0 0.00 0.00 0.00 30 930.7
20260507202834 64 341 10.0 20.0 0.00 0.00 0.00 32 930.3
20260507202331 64 298 8.0 18.0 0.00 0.00 0.00 33 930.4
20260507201826 64 312 11.0 18.0 0.00 0.00 0.00 31 930.7
20260507201322 63 323 8.0 20.0 0.00 0.00 0.00 32 930.7
20260507200819 64 304 12.0 21.0 0.00 0.00 0.00 31 930.7
20260507200315 64 184 11.0 20.0 0.00 0.00 0.00 32 930.7
20260507195811 65 1 9.0 17.0 0.00 0.00 0.00 31 930.7
20260507195308 66 317 15.0 17.0 0.00 0.00 0.00 29 930.5
20260507194806 65 300 14.0 23.0 0.00 0.00 0.00 31 930.8
20260507194302 67 274 10.0 20.0 0.00 0.00 0.00 31 930.8
20260507193758 65 190 10.0 14.0 0.00 0.00 0.00 34 930.7
20260507193255 63 287 1.0 14.0 0.00 0.00 0.00 35 930.8
20260507192751 63 289 11.0 20.0 0.00 0.00 0.00 35 930.9
20260507192248 64 299 13.0 18.0 0.00 0.00 0.00 35 931.1
20260507191744 63 307 13.0 18.0 0.00 0.00 0.00 33 930.9
20260507191241 63 266 2.0 13.0 0.00 0.00 0.00 36 930.8
20260507190738 63 257 10.0 13.0 0.00 0.00 0.00 35 931.0
20260507190236 62 317 2.0 11.0 0.00 0.00 0.00 37 930.8